Stations météo

Publicité
Lentran, Grande-Bretagne (99125): Température de l'air & dewpoint: 13.09.2018 15:00:00 - 19.09.2018 15:00:00 (BST)Lentran, Grande-Bretagne (99125): Quantités de précipitations: 13.09.2018 15:00:00 - 19.09.2018 15:00:00 (BST)
Date & Time tt [°C] td [°C] rr [mm]
19.09.2018 15:00:00 11,2 8,9 0,6
19.09.2018 14:00:00 11,3 10,1 0,2
19.09.2018 13:00:00 9,9 9,2 3,0
19.09.2018 12:00:00 9,9 9,1 3,6
19.09.2018 11:00:00 8,9 8,1 1,8
19.09.2018 10:00:00 8,7 6,5 1,4
19.09.2018 09:00:00 9,6 5,2 0,0
19.09.2018 08:00:00 9,3 6,5 0,0
19.09.2018 07:00:00 9,1 7,1 0,0
19.09.2018 06:00:00 8,4 6,6 0,0
19.09.2018 05:00:00 8,6 7,1 0,0
19.09.2018 04:00:00 8,0 6,9 0,0
19.09.2018 03:00:00 6,7 5,4 0,2
19.09.2018 02:00:00 7,1 5,7 3,4
19.09.2018 01:00:00 9,5 8,0 0,0
19.09.2018 00:00:00 10,3 8,1 0,0
18.09.2018 23:00:00 10,0 8,1 0,4
18.09.2018 22:00:00 11,1 9,2 0,2
18.09.2018 21:00:00 12,1 10,4 0,0
18.09.2018 20:00:00 12,3 10,5 0,0
18.09.2018 19:00:00 12,4 10,2 0,0
18.09.2018 18:00:00 13,8 10,0 0,0
18.09.2018 17:00:00 14,5 11,5 0,0
18.09.2018 16:00:00 14,5 13,7 0,6
18.09.2018 15:00:00 12,6 12,4 0,2
18.09.2018 14:00:00 12,7 12,6 1,4
18.09.2018 13:00:00 12,4 12,2 0,2
18.09.2018 12:00:00 12,5 12,2 0,6
18.09.2018 11:00:00 12,9 12,7 1,0
18.09.2018 10:00:00 13,4 13,1 0,8
18.09.2018 09:00:00 13,2 13,0 0,0
18.09.2018 08:00:00 13,1 12,9 0,8
18.09.2018 07:00:00 13,1 12,5 2,8
18.09.2018 06:00:00 14,4 13,5 0,0
18.09.2018 05:00:00 14,9 13,8 0,0
18.09.2018 04:00:00 15,3 14,0 0,0
18.09.2018 03:00:00 15,3 14,1 0,0
18.09.2018 02:00:00 15,1 14,1 0,0
18.09.2018 01:00:00 15,0 14,1 1,0
18.09.2018 00:00:00 15,1 14,1 3,0
17.09.2018 23:00:00 14,9 14,1 2,2
17.09.2018 22:00:00 14,3 13,8 3,4
17.09.2018 21:00:00 12,4 12,2 0,8
17.09.2018 20:00:00 12,0 11,6 0,2
17.09.2018 19:00:00 12,5 11,8 0,2
17.09.2018 18:00:00 13,2 11,7 0,6
17.09.2018 17:00:00 13,5 10,6 0,0
17.09.2018 16:00:00 12,7 12,0 0,0
17.09.2018 15:00:00 12,2 10,9 0,6
17.09.2018 14:00:00 13,0 10,6 0,4
17.09.2018 13:00:00 14,4 10,8 0,0
17.09.2018 12:00:00 13,2 11,0 0,0
17.09.2018 11:00:00 12,6 11,0 0,2
17.09.2018 10:00:00 11,7 10,5 0,0
17.09.2018 09:00:00 11,3 10,0 0,0
17.09.2018 08:00:00 10,8 9,8 0,0
17.09.2018 07:00:00 11,0 9,4 0,0
17.09.2018 06:00:00 10,8 8,7 0,0
17.09.2018 05:00:00 10,3 8,3 0,0
17.09.2018 04:00:00 9,5 7,0 0,0
17.09.2018 03:00:00 9,2 7,1 0,0
17.09.2018 02:00:00 9,7 7,9 0,0
17.09.2018 01:00:00 10,2 7,9 0,0
17.09.2018 00:00:00 9,8 7,3 0,0
16.09.2018 23:00:00 9,4 6,9 0,0
16.09.2018 22:00:00 8,6 6,0 0,0
16.09.2018 21:00:00 9,1 5,9 0,0
16.09.2018 20:00:00 9,9 4,8 0,0
16.09.2018 19:00:00 10,4 6,2 0,0
16.09.2018 18:00:00 10,6 6,1 0,0
16.09.2018 17:00:00 11,6 5,3 0,0
16.09.2018 16:00:00 12,5 3,6 0,0
16.09.2018 15:00:00 12,0 6,3 0,0
16.09.2018 14:00:00 13,2 5,2 0,0
16.09.2018 13:00:00 12,1 7,2 0,0
16.09.2018 12:00:00 13,3 7,3 0,0
16.09.2018 11:00:00 13,4 8,4 0,0
16.09.2018 10:00:00 13,9 9,7 0,0
16.09.2018 09:00:00 12,8 9,7 0,0
16.09.2018 08:00:00 13,0 10,1 0,0
16.09.2018 07:00:00 13,5 11,9 0,0
16.09.2018 06:00:00 13,4 12,5 0,0
16.09.2018 05:00:00 11,8 11,6 0,2
16.09.2018 04:00:00 10,8 10,4 0,6
16.09.2018 03:00:00 11,1 10,6 3,6
16.09.2018 02:00:00 9,9 9,7 0,6
16.09.2018 01:00:00 10,0 9,6 0,6
16.09.2018 00:00:00 9,2 9,1 0,2
15.09.2018 23:00:00 9,1 8,8 0,0
15.09.2018 22:00:00 9,1 8,8 0,4
15.09.2018 21:00:00 9,1 8,5 0,0
15.09.2018 20:00:00 9,4 8,2 0,2
15.09.2018 19:00:00 10,8 7,5 0,0
15.09.2018 18:00:00 11,4 6,8 0,0
15.09.2018 17:00:00 12,5 6,9 0,0
15.09.2018 16:00:00 12,7 6,7 0,0
15.09.2018 15:00:00 13,2 7,2 0,0
15.09.2018 14:00:00 12,5 6,6 0,0
15.09.2018 13:00:00 12,0 8,0 0,2
15.09.2018 12:00:00 11,2 6,7 0,0
15.09.2018 11:00:00 12,2 6,6 0,0
15.09.2018 10:00:00 10,8 6,7 0,0
15.09.2018 09:00:00 8,9 5,3 0,0
15.09.2018 08:00:00 7,7 4,6 0,0
15.09.2018 07:00:00 7,4 4,3 0,0
15.09.2018 06:00:00 7,8 4,5 0,0
15.09.2018 05:00:00 7,4 4,3 0,0
15.09.2018 04:00:00 7,5 4,5 0,0
15.09.2018 03:00:00 6,7 3,8 0,0
15.09.2018 02:00:00 7,3 4,0 0,0
15.09.2018 01:00:00 7,7 4,0 0,0
15.09.2018 00:00:00 8,5 4,5 0,0
14.09.2018 23:00:00 8,6 4,9 0,0
14.09.2018 22:00:00 7,7 4,5 0,0
14.09.2018 21:00:00 8,1 4,6 0,0
14.09.2018 20:00:00 8,6 4,2 0,0
14.09.2018 19:00:00 10,7 4,8 0,0
14.09.2018 18:00:00 12,1 4,4 0,0
14.09.2018 17:00:00 11,0 4,0 0,0
14.09.2018 16:00:00 13,7 5,2 0,0
14.09.2018 15:00:00 11,8 4,6 0,0
14.09.2018 14:00:00 11,2 4,2 0,0
14.09.2018 13:00:00 12,0 5,0 0,0
14.09.2018 12:00:00 11,8 3,8 0,0
14.09.2018 11:00:00 11,7 4,9 0,0
14.09.2018 10:00:00 10,5 6,2 0,0
14.09.2018 09:00:00 10,0 6,4 0,0
14.09.2018 08:00:00 9,9 7,7 0,0
14.09.2018 07:00:00 8,9 8,2 0,8
14.09.2018 06:00:00 9,8 8,7 1,2
14.09.2018 05:00:00 10,2 8,3 0,0
14.09.2018 04:00:00 10,1 8,2 0,0
14.09.2018 03:00:00 10,0 8,2 0,0
14.09.2018 02:00:00 9,6 7,9 0,2
14.09.2018 01:00:00 8,8 7,2 0,0
14.09.2018 00:00:00 8,1 7,1 0,0
13.09.2018 23:00:00 8,9 6,6 0,0
13.09.2018 22:00:00 8,9 6,2 0,0
13.09.2018 21:00:00 8,9 6,3 0,0
13.09.2018 20:00:00 8,9 6,2 0,0
13.09.2018 19:00:00 10,9 5,8 0,0
13.09.2018 18:00:00 11,5 5,9 0,0
13.09.2018 17:00:00 12,3 5,3 0,0
13.09.2018 16:00:00 11,5 5,5 0,0
13.09.2018 15:00:00 12,3 4,5 0,0

tt = Température de l'air
td = dewpoint
rr = Quantités de précipitations

stations d'obs. à proximité